| time (UTC) | temp F | wind direction | speed knots | gust knots | rain 1hr in | rain 24hr in | rain mn in | humidity % | barometer mb |
| 20260507154547 | 61 | 342 | 3.5 | 7.8 | 0.00 | 0.00 | 0.00 | 54 | 1023.0 |
| 20260507153049 | 61 | 304 | 2.6 | 6.1 | 0.00 | 0.00 | 0.00 | 58 | 1023.1 |
| 20260507151549 | 60 | 5 | 2.6 | 7.0 | 0.00 | 0.00 | 0.00 | 56 | 1023.3 |
| 20260507150047 | 59 | 61 | 2.6 | 5.2 | 0.00 | 0.00 | 0.00 | 62 | 1023.5 |
| 20260507144545 | 58 | 57 | 2.6 | 5.2 | 0.00 | 0.00 | 0.00 | 63 | 1023.7 |
| 20260507143046 | 57 | 17 | 2.6 | 5.2 | 0.00 | 0.00 | 0.00 | 65 | 1023.7 |
| 20260507141543 | 56 | 13 | 1.7 | 4.3 | 0.00 | 0.00 | 0.00 | 67 | 1023.8 |
| 20260507140048 | 56 | 46 | 1.7 | 3.5 | 0.00 | 0.00 | 0.00 | 68 | 1024.0 |
| 20260507134553 | 54 | 70 | 0.9 | 3.5 | 0.00 | 0.00 | 0.00 | 72 | 1024.1 |
| 20260507133051 | 53 | 254 | 0.9 | 2.6 | 0.00 | 0.00 | 0.00 | 72 | 1024.1 |
| 20260507131557 | 52 | 0 | 0.0 | 0.0 | 0.00 | 0.00 | 0.00 | 77 | 1024.3 |
| 20260507130058 | 51 | 267 | 0.0 | 1.7 | 0.00 | 0.00 | 0.00 | 78 | 1024.2 |
| 20260507124550 | 50 | 267 | 0.0 | 1.7 | 0.00 | 0.00 | 0.00 | 80 | 1023.9 |
| 20260507123049 | 48 | 267 | 0.0 | 1.7 | 0.00 | 0.00 | 0.00 | 83 | 1023.9 |
| 20260507121540 | 45 | 0 | 0.0 | 0.9 | 0.00 | 0.00 | 0.00 | 86 | 1023.7 |
| 20260507120047 | 43 | 0 | 0.0 | 0.9 | 0.00 | 0.00 | 0.00 | 86 | 1023.7 |
| 20260507114558 | 43 | 0 | 0.0 | 0.0 | 0.00 | 0.00 | 0.00 | 86 | 1023.4 |
| 20260507113045 | 43 | 0 | 0.0 | 0.0 | 0.00 | 0.00 | 0.00 | 84 | 1023.4 |
| 20260507111544 | 44 | 0 | 0.0 | 0.9 | 0.00 | 0.00 | 0.00 | 84 | 1023.4 |
| 20260507110042 | 44 | 0 | 0.0 | 1.7 | 0.00 | 0.00 | 0.00 | 83 | 1023.6 |
| 20260507104552 | 47 | 0 | 0.0 | 1.7 | 0.00 | 0.00 | 0.00 | 82 | 1023.5 |
| 20260507103049 | 47 | 317 | 0.9 | 2.6 | 0.00 | 0.00 | 0.00 | 82 | 1023.6 |
| 20260507101603 | 48 | 317 | 1.7 | 2.6 | 0.00 | 0.00 | 0.00 | 81 | 1023.5 |
| 20260507100045 | 48 | 317 | 0.9 | 2.6 | 0.00 | 0.00 | 0.00 | 81 | 1023.5 |
| 20260507094544 | 49 | 317 | 0.9 | 1.7 | 0.00 | 0.00 | 0.00 | 80 | 1023.5 |
| 20260507093048 | 49 | 0 | 0.0 | 1.7 | 0.00 | 0.00 | 0.00 | 80 | 1023.6 |
| 20260507091541 | 48 | 317 | 0.9 | 2.6 | 0.00 | 0.00 | 0.00 | 80 | 1023.7 |
| 20260507090046 | 48 | 317 | 1.7 | 3.5 | 0.00 | 0.00 | 0.00 | 78 | 1023.6 |
| 20260507084546 | 49 | 306 | 0.9 | 2.6 | 0.00 | 0.00 | 0.00 | 78 | 1023.6 |
| 20260507083045 | 49 | 306 | 0.9 | 2.6 | 0.00 | 0.00 | 0.00 | 79 | 1023.7 |
| 20260507081602 | 48 | 306 | 0.9 | 1.7 | 0.00 | 0.00 | 0.00 | 77 | 1023.7 |
| 20260507080050 | 48 | 0 | 0.0 | 0.9 | 0.00 | 0.00 | 0.00 | 81 | 1023.9 |
| 20260507074601 | 47 | 306 | 0.0 | 1.7 | 0.00 | 0.00 | 0.00 | 80 | 1024.2 |
| 20260507073049 | 47 | 0 | 0.0 | 0.9 | 0.00 | 0.00 | 0.00 | 82 | 1023.9 |
| 20260507071547 | 47 | 306 | 0.0 | 1.7 | 0.00 | 0.00 | 0.00 | 82 | 1024.2 |
| 20260507070048 | 47 | 306 | 0.0 | 0.9 | 0.00 | 0.00 | 0.00 | 83 | 1024.3 |
| 20260507064545 | 46 | 0 | 0.0 | 0.9 | 0.00 | 0.00 | 0.00 | 81 | 1024.6 |
| 20260507063045 | 46 | 0 | 0.0 | 0.9 | 0.00 | 0.00 | 0.00 | 83 | 1024.6 |
| 20260507061544 | 45 | 0 | 0.0 | 0.9 | 0.00 | 0.00 | 0.00 | 83 | 1024.4 |
| 20260507060043 | 43 | 0 | 0.0 | 1.7 | 0.00 | 0.00 | 0.00 | 86 | 1024.7 |
| 20260507054555 | 43 | 0 | 0.0 | 0.9 | 0.00 | 0.00 | 0.00 | 85 | 1024.6 |
| 20260507053039 | 43 | 0 | 0.0 | 0.9 | 0.00 | 0.00 | 0.00 | 85 | 1024.6 |
| 20260507051546 | 44 | 0 | 0.0 | 0.9 | 0.00 | 0.00 | 0.00 | 84 | 1024.5 |
| 20260507050050 | 44 | 0 | 0.0 | 0.9 | 0.00 | 0.00 | 0.00 | 83 | 1024.2 |
| 20260507044550 | 45 | 0 | 0.0 | 0.9 | 0.00 | 0.00 | 0.00 | 82 | 1024.3 |
| 20260507043048 | 46 | 306 | 0.0 | 0.9 | 0.00 | 0.00 | 0.00 | 81 | 1024.2 |
| 20260507041551 | 47 | 0 | 0.0 | 0.9 | 0.00 | 0.00 | 0.00 | 78 | 1024.1 |
| 20260507040046 | 47 | 0 | 0.0 | 0.0 | 0.00 | 0.00 | 0.00 | 81 | 1024.4 |
| 20260507034551 | 47 | 0 | 0.0 | 0.0 | 0.00 | 0.01 | 0.00 | 78 | 1024.2 |
| 20260507033046 | 46 | 0 | 0.0 | 0.9 | 0.00 | 0.01 | 0.00 | 82 | 1024.2 |
| 20260507031551 | 47 | 0 | 0.0 | 0.0 | 0.00 | 0.01 | 0.00 | 79 | 1024.3 |
| 20260507030053 | 49 | 0 | 0.0 | 0.0 | 0.00 | 0.01 | 0.00 | 76 | 1024.2 |
| 20260507024546 | 49 | 0 | 0.0 | 0.0 | 0.00 | 0.01 | 0.00 | 73 | 1024.0 |
| 20260507023044 | 51 | 0 | 0.0 | 0.0 | 0.00 | 0.01 | 0.00 | 68 | 1023.9 |
| 20260507021543 | 53 | 0 | 0.0 | 0.0 | 0.00 | 0.01 | 0.00 | 64 | 1023.5 |
| 20260507020050 | 54 | 0 | 0.0 | 0.9 | 0.00 | 0.01 | 0.00 | 57 | 1023.2 |
| 20260507014602 | 55 | 0 | 0.0 | 1.7 | 0.00 | 0.01 | 0.00 | 58 | 1023.2 |
| 20260507013053 | 56 | 306 | 0.0 | 2.6 | 0.00 | 0.01 | 0.00 | 52 | 1023.0 |
| 20260507011551 | 57 | 0 | 0.0 | 2.6 | 0.00 | 0.01 | 0.00 | 52 | 1023.0 |
| 20260507010044 | 58 | 312 | 0.0 | 5.2 | 0.00 | 0.01 | 0.00 | 48 | 1023.0 |
| 20260507004549 | 58 | 343 | 0.9 | 6.1 | 0.00 | 0.01 | 0.00 | 47 | 1022.9 |
| 20260507003052 | 59 | 223 | 0.9 | 5.2 | 0.00 | 0.01 | 0.00 | 47 | 1022.7 |
| 20260507001602 | 59 | 183 | 1.7 | 3.5 | 0.00 | 0.01 | 0.00 | 46 | 1022.7 |
| 20260507000045 | 60 | 0 | 0.9 | 5.2 | 0.00 | 0.01 | 0.00 | 45 | 1022.6 |
| 20260506234543 | 59 | 178 | 0.0 | 7.0 | 0.00 | 0.01 | 0.00 | 48 | 1022.4 |
| 20260506233108 | 61 | 118 | 2.6 | 7.8 | 0.00 | 0.01 | 0.00 | 43 | 1022.4 |
| 20260506231551 | 61 | 159 | 1.7 | 5.2 | 0.00 | 0.01 | 0.00 | 44 | 1022.2 |
| 20260506230051 | 63 | 201 | 2.6 | 7.8 | 0.00 | 0.01 | 0.00 | 42 | 1022.2 |
| 20260506224546 | 62 | 191 | 1.7 | 7.0 | 0.00 | 0.01 | 0.00 | 42 | 1022.1 |
| 20260506223043 | 63 | 242 | 1.7 | 7.8 | 0.00 | 0.01 | 0.00 | 43 | 1021.9 |
| 20260506221543 | 63 | 248 | 1.7 | 6.1 | 0.00 | 0.01 | 0.00 | 41 | 1021.8 |
| 20260506220044 | 63 | 132 | 1.7 | 7.0 | 0.00 | 0.01 | 0.00 | 41 | 1022.0 |
| 20260506214540 | 63 | 144 | 3.5 | 8.7 | 0.00 | 0.01 | 0.00 | 44 | 1022.0 |
| 20260506213102 | 63 | 294 | 5.2 | 10.4 | 0.00 | 0.01 | 0.00 | 39 | 1022.1 |
| 20260506211548 | 62 | 103 | 1.7 | 8.7 | 0.00 | 0.01 | 0.00 | 42 | 1022.1 |
| 20260506210045 | 64 | 221 | 0.9 | 8.7 | 0.00 | 0.01 | 0.00 | 43 | 1022.3 |
| 20260506204549 | 62 | 263 | 3.5 | 8.7 | 0.00 | 0.01 | 0.00 | 39 | 1022.5 |
| 20260506203043 | 62 | 223 | 1.7 | 9.6 | 0.00 | 0.01 | 0.00 | 41 | 1022.7 |
| 20260506201542 | 62 | 276 | 1.7 | 8.7 | 0.00 | 0.01 | 0.00 | 39 | 1023.0 |
| 20260506200048 | 61 | 240 | 1.7 | 13.0 | 0.00 | 0.01 | 0.00 | 39 | 1023.1 |
| 20260506194552 | 60 | 171 | 2.6 | 8.7 | 0.00 | 0.01 | 0.00 | 42 | 1023.2 |
| 20260506193103 | 62 | 224 | 2.6 | 9.6 | 0.00 | 0.01 | 0.00 | 41 | 1023.3 |
| 20260506191552 | 61 | 204 | 5.2 | 10.4 | 0.00 | 0.01 | 0.00 | 42 | 1023.2 |
| 20260506190051 | 60 | 258 | 2.6 | 12.2 | 0.00 | 0.01 | 0.00 | 43 | 1023.2 |
| 20260506184549 | 61 | 184 | 3.5 | 9.6 | 0.00 | 0.01 | 0.00 | 42 | 1023.5 |
| 20260506183051 | 60 | 200 | 4.3 | 13.0 | 0.00 | 0.01 | 0.00 | 39 | 1023.5 |
| 20260506181612 | 60 | 169 | 1.7 | 11.3 | 0.00 | 0.01 | 0.00 | 44 | 1024.0 |
| 20260506180055 | 59 | 217 | 2.6 | 10.4 | 0.00 | 0.01 | 0.00 | 45 | 1023.9 |
| 20260506174553 | 59 | 217 | 2.6 | 8.7 | 0.00 | 0.02 | 0.00 | 47 | 1024.1 |
| 20260506173057 | 59 | 279 | 2.6 | 8.7 | 0.00 | 0.02 | 0.00 | 53 | 1024.3 |
| 20260506171550 | 58 | 251 | 4.3 | 12.2 | 0.00 | 0.02 | 0.00 | 51 | 1024.0 |
| 20260506170103 | 57 | 136 | 2.6 | 9.6 | 0.00 | 0.02 | 0.00 | 57 | 1024.3 |
| 20260506164544 | 56 | 246 | 1.7 | 8.7 | 0.00 | 0.04 | 0.00 | 56 | 1024.1 |
| 20260506163104 | 56 | 61 | 1.7 | 10.4 | 0.00 | 0.04 | 0.00 | 59 | 1023.9 |
| 20260506161543 | 55 | 134 | 1.7 | 7.8 | 0.00 | 0.04 | 0.00 | 60 | 1024.4 |
| 20260506160043 | 55 | 130 | 3.5 | 10.4 | 0.00 | 0.04 | 0.00 | 64 | 1024.2 |